Location: Mercogliano
(40.9167°N, 14.7333°E)
Time: 04:27:26
(UTC+00:00)

Centaur D-1AR AC-40 - Pass Details

Date: 18 September 2020
Orbit: 612 x 36031 km, 21.4° (Epoch: 25 October)

Event Time Altitude Azimuth Distance (km) Brightness Sun altitude
Rises 17:53:52 0° 262° (W) 14,482 10.1 -10.1°
Reaches altitude 10° 18:13:54 10° 252° (WSW) 7,854 8.1 -13.8°
Maximum altitude 18:26:35 21° 210° (SSW) 3,202 5.3 -16.1°
Drops below altitude 10° 18:31:20 10° 160° (SSE) 2,736 4.5 -17.0°
Enters shadow 18:31:30 - 158° (SSE) 2,756 4.5 -17.0°
